Regional Weather Roundup
Issued by NWS Charleston, WV

Home | Current Version | Previous Version | Text Only | Print | Product List | Glossary Off
Versions: 1 2 3 4 5 6 7 8 9 10 11 12 13 14 15 16 17 18 19 20 21 22 23 24 25 26 27 28 29 30 31 32 33 34 35 36 37 38 39 40 41 42 43 44 45 46 47 48 49 50

000
ASUS41 KRLX 260710
RWRRLX
West Virginia Regional Weather Roundup
National Weather Service Charleston WV
300 AM EDT MON SEP 26 2016

Note: "fair" indicates few or no clouds below 12,000 feet with no
significant weather and/or obstructions to visibility.

WVZ003-260800-
Northern Panhandle of West Virginia

CITY           SKY/WX    TMP DP  RH WIND       PRES   REMARKS
WHEELING       CLEAR     59  47  64 CALM      30.05S
$$

WVZ009-260800-
Northwest West Virginia

CITY           SKY/WX    TMP DP  RH WIND       PRES   REMARKS
PARKERSBURG    CLEAR     56  52  86 CALM      30.06S
$$

WVZ006-260800-
Western West Virginia

CITY           SKY/WX    TMP DP  RH WIND       PRES   REMARKS
HUNTINGTON     CLEAR     66  63  90 CALM      30.02S
$$

WVZ015-260800-
West Central West Virginia

CITY           SKY/WX    TMP DP  RH WIND       PRES   REMARKS
CHARLESTON     CLEAR     61  59  93 CALM      30.03F
$$

WVZ022-031-260800-
North Central West Virginia

CITY           SKY/WX    TMP DP  RH WIND       PRES   REMARKS
CLARKSBURG     CLEAR     53  49  86 CALM      30.05F
MORGANTOWN     CLEAR     63  47  55 CALM      30.07S
$$

WVZ025-035-042-045-260800-
Southern West Virginia

CITY           SKY/WX    TMP DP  RH WIND       PRES   REMARKS
BECKLEY        CLEAR     65  63  93 SE9       30.13S
LOGAN            N/A     66  64  94 CALM      30.06S
BLUEFIELD      PTCLDY    65  62  90 S8        30.16S
LEWISBURG      CLOUDY    64  62  93 CALM      30.15S
$$

WVZ047-260800-
Northern Mountains of West Virginia

CITY           SKY/WX    TMP DP  RH WIND       PRES   REMARKS
ELKINS         CLEAR     49  46  90 CALM      30.13S
$$

WVZ052-260800-
Eastern Panhandle of West Virginia

CITY           SKY/WX    TMP DP  RH WIND       PRES   REMARKS
MARTINSBURG    CLOUDY    54  52  93 CALM      30.13F
PETERSBURG     CLOUDY    62  52  70 CALM      30.12F
$$




USA.gov is the U.S. government's official web portal to all federal, state and local government web resources and services.